Location: Fenile
(46.0500°N, 9.5500°E)
Time: 20:49:11
(UTC+00:00)

Meteor 1-25 Rocket - Pass Details

Date: 03 March 2021
Orbit: 835 x 893 km, 81.2° (Epoch: 13 April)

Event Time Altitude Azimuth Distance (km) Brightness Sun altitude
Rises 17:29:38 0° 176° (S) 3,473 7.4 -4.0°
Reaches altitude 10° 17:32:07 10° 173° (S) 2,531 6.7 -4.4°
Maximum altitude 17:37:44 58° 96° (E) 1,015 4.4 -5.4°
Drops below altitude 10° 17:43:19 10° 18° (NNE) 2,511 6.5 -6.4°
Sets 17:45:46 0° 15° (NNE) 3,443 7.2 -6.8°
